一网星座-0311星 (ONEWEB-0311 )

导读 | 星芒AI

ONEWE-0311 是 OneWeb 卫星通信星座计划中的一颗低轨通信卫星,旨在为全球用户提供高速互联网服务。该卫星由空中客车防务与航天公司制造,采用标准化设计以降低发射和运营成本。OneWeb 星座计划部署数百颗卫星,以实现全球覆盖,特别是在偏远和农村地区。ONEWE-0311 于 2022 年 11 月 30 日由阿丽亚娜航天公司使用阿丽亚娜 5 型火箭从法属圭亚那库鲁发射升空,与其他卫星共同构建全球宽带网络。

基本信息
目录编号:
49097
目录名称:
ONEWEB-0311
国际标识:
2021-075Y
轨道中心:
EARTH
卫星名称:
一网星座-0311星
卫星全名:
一网星座-0311星 (ONEWEB-0311 )
卫星状态:
在轨 (已飞行1577 天)
发射日期:
2021-08-21 UTC
国别 :
英国 (GB)
星等 :
--
轨道信息
数据来源 国际轨道数据 AOE轨道数据
星历时间 2025-12-15T04:59:28+0800
22小时前
查看轨道信息
2025-12-13T05:00:00+0800
2天前
查看轨道信息
半长轴 7571.854km 7571.865km
偏心率 0.0001771 0.000167
轨道倾角 87.912° 87.913°
近地点辐角 111.828° 107.003°
升交点赤经 42.502° 42.900°
平近点角 248.304° 133.206°
近地点 1192.378km 1192.465km
远地点 1195.06km 1194.995km
周期 109.286分钟 109.286分钟
每日圈数 13.176481 13.176454
详细信息
平衡模式:
三轴稳定
覆盖范围:
全球
运营商:
一网卫星公司
运营商所在国:
英国
制造商(研发单位):
一网卫星公司
制造商所在国:
英国
使用方式:
暂无
卫星简介
OneWeb卫星网络由648颗重约125公斤的微型卫星组成,运行在1200公里的轨道上。 每颗卫星都能够提供至少每秒8千兆位的吞吐量,以使用其高吞吐量的Ku频段有效载荷为家庭和移动平台提供互联网接入。该卫星仍在工作。
2D轨道图
3D轨道图
轨道高度分析图
轨道倾角分析图
轨道综合分析图
查看轨道综合分析图